Home > Time Zones > World Clock > Weather > Belgium > Spa > Past weeks

Flag Weather past 2 weeks in Spa, Belgium

Now
35 °F

Clear.


Feels Like: 35 °F
Forecast: 36 / 48 °F
Wind: 1 mph from East

Location: Spa / La Sauveniere

Current Time: Nov 25, 2014 at 1:47:00 AM

Latest Report: Nov 25, 2014 at 12:00 AM


Visibility: 6 mi

Pressure: N/A

Humidity: N/A

Dew point: N/A

Location of SpaLocation

Historic Weather in Spa — Graph

°F

Spa temperature yesterday

Maximum temperature yesterday: 52 °F (at 1:00 AM)
Minimum temperature yesterday: 34 °F (at 10:00 PM)
Average temperature yesterday: 43 °F

Past Weeks' High & Low Weather Summary

 TemperatureHumidityPressure
High57 °F (Nov 11, 2:00 PM)100% (Nov 24, 7:00 AM)30.37 "Hg (Nov 24, 7:00 AM)
Low34 °F (Nov 24, 10:00 PM)70% (Nov 10, 3:00 PM)29.54 "Hg (Nov 16, 4:00 PM)
Average44 °F90%29.85 "Hg
* Reported Midnight between Nov 9 and Nov 10 — Midnight between Nov 24 and Nov 25, Spa, Weather by CustomWeather, © 2014

Note: Actual official high and low records may vary slightly from our data, if they occured in-between our weather recording intervals... More about our weather records

Advertising

Spa weather history for previous 24 hours

 ConditionsComfort  
Time TempWeatherWind HumidityBarometerVisibility
12:00 AM
Nov 25
35 °FClear.1 mphN/AN/A6 mi
11:00 PM
Nov 24
36 °FClear.2 mphN/AN/AN/A
10:00 PM34 °FClear.3 mphN/AN/A6 mi
9:00 PM36 °FClear.2 mph93%30.37 "Hg7 mi
8:00 PM36 °FClear.2 mph92%30.36 "Hg9 mi
7:00 PM38 °FClear.3 mph91%30.35 "Hg9 mi
6:00 PM38 °FClear.2 mph91%30.34 "Hg11 mi
5:00 PM39 °FClear.1 mph90%30.34 "Hg13 mi
4:00 PM42 °FSunny.1 mph85%30.32 "Hg19 mi
3:00 PM44 °FSunny.2 mph79%30.31 "Hg17 mi
2:00 PM43 °FSunny.1 mph84%30.31 "Hg19 mi
1:00 PM44 °FSunny.2 mph83%30.30 "Hg11 mi
12:00 PM42 °FPassing clouds.3 mph91%30.31 "Hg14 mi
11:00 AM42 °FLow clouds.2 mph93%30.31 "Hg9 mi
10:00 AM42 °FLow clouds.2 mph96%30.28 "Hg6 mi
9:00 AM42 °FLow clouds.3 mph98%30.27 "HgN/A
8:00 AM43 °FLight rain. Dense fog.3 mph99%30.24 "Hg0 mi
7:00 AM43 °FDense fog.6 mph100%30.22 "Hg0 mi
6:00 AM44 °FLight rain. Low clouds.6 mph97%30.19 "Hg2 mi
5:00 AM45 °FLow clouds.1 mph98%30.14 "Hg2 mi
4:00 AM45 °FLight rain. Low clouds.6 mph99%30.14 "Hg1 mi
3:00 AM48 °FLight rain. Dense fog.5 mph99%30.10 "Hg0 mi
2:00 AM52 °FLow clouds.5 mph92%30.07 "Hg7 mi
1:00 AM52 °FOvercast.2 mph89%30.05 "Hg11 mi
Weather by CustomWeather, © 2014

See weather overviewHow to use our weather pages